Flag for U.S.A. Weather past 2 weeks in Knoxville, Tennessee, U.S.A.

Now
40 °F

Overcast.


Feels Like: 35 °F
Forecast: 30 / 48 °F
Wind: 7 mph from North

Location: McGhee Tyson Airport

Current Time: Dec 21, 2014 at 12:56:05 AM

Latest Report: Dec 20, 2014 at 11:53 PM


Visibility: 9 mi

Pressure: 30.24 "Hg

Humidity: 83%

Dew point: 35 °F

Location of KnoxvilleLocation

Historic Weather in Knoxville — Graph

°F

Knoxville temperature yesterday

Maximum temperature yesterday: 43 °F (at 3:53 PM)
Minimum temperature yesterday: 37 °F (at 6:53 AM)
Average temperature yesterday: 40 °F

Past Weeks' High & Low Weather Summary

 TemperatureHumidityPressure
High58 °F (Dec 6, 12:53 PM)100% (Dec 6, 3:53 AM)30.47 "Hg (Dec 6, 3:53 AM)
Low22 °F (Dec 12, 5:53 AM)27% (Dec 12, 3:53 PM)29.88 "Hg (Dec 16, 4:53 AM)
Average39 °F74%30.20 "Hg
* Reported Dec 5 10:53 PM — Dec 20 10:53 PM, Knoxville, Weather by CustomWeather, © 2014

Note: Actual official high and low records may vary slightly from our data, if they occured in-between our weather recording intervals... More about our weather records

Advertising

Knoxville weather history for previous 24 hours

 ConditionsComfort  
Time TempWeatherWind HumidityBarometerVisibility
10:53 PM
Dec 20
41 °FOvercast.5 mph82%30.24 "Hg9 mi
9:53 PM41 °FOvercast.5 mph80%30.24 "Hg10 mi
8:53 PM42 °FOvercast.3 mph76%30.24 "Hg10 mi
7:53 PM42 °FOvercast.3 mph76%30.24 "Hg9 mi
6:53 PM42 °FOvercast.5 mph76%30.23 "Hg10 mi
5:53 PM42 °FOvercast.3 mph73%30.23 "Hg10 mi
4:53 PM42 °FOvercast.3 mph73%30.21 "Hg10 mi
3:53 PM43 °FOvercast.No wind68%30.20 "Hg10 mi
2:53 PM42 °FOvercast.No wind71%30.20 "Hg10 mi
1:53 PM42 °FOvercast.No wind71%30.19 "Hg10 mi
12:53 PM41 °FOvercast.No wind67%30.21 "Hg10 mi
11:53 AM41 °FOvercast.3 mph67%30.24 "Hg10 mi
10:53 AM40 °FOvercast.3 mph70%30.24 "Hg10 mi
9:53 AM39 °FOvercast.5 mph76%30.24 "Hg10 mi
8:53 AM38 °FMostly cloudy.3 mph76%30.24 "Hg10 mi
7:53 AM38 °FCloudy.3 mph79%30.21 "Hg10 mi
6:53 AM37 °FLight rain. Mostly cloudy.5 mph82%30.19 "Hg10 mi
5:53 AM38 °FMostly cloudy.No wind76%30.19 "Hg10 mi
4:53 AM38 °FLight rain. Mostly cloudy.No wind73%30.17 "Hg10 mi
3:53 AM38 °FOvercast.3 mph68%30.18 "Hg10 mi
2:53 AM38 °FMostly cloudy.No wind70%30.16 "Hg10 mi
1:53 AM38 °FOvercast.No wind70%30.15 "Hg10 mi
12:53 AM38 °FMostly cloudy.5 mph68%30.16 "Hg10 mi
Weather by CustomWeather, © 2014

See weather overviewHow to use our weather pages